RH
11 9 8 6 6 9 18 22 24 23 23 23 24 23 20 22 29 30 32 32 30 30 27 27 16 13 16 15 13 13 12 12 12 12 12 11 10 10 9 8 9 9 12 19
20 17 9 6 12 28 29 24 30 25 25 24 23 24 24 24 21 25 31 31 31 29 29 24 14 15 15 15 15 16 14 14 12 13 13 13 12 13 13 14 17 16 17 26
11 9 10 14 14 33 32 31 29 28 24 25 23 26 27 28 24 30 33 34 32 31 30 26 15 16 16 19 17 16 17 17 18 18 19 20 20 19 22 24 23 28 33 39
29 12 22 37 32 30 32 28 29 31 29 26 24 32 26 26 28 29 31 31 31 31 32 28 16 18 21 22 22 22 26 26 25 24 24 24 25 24 25 26 29 31 34 49
36 26 19 36 34 32 32 29 30 32 29 28 27 33 31 24 28 30 30 32 32 32 32 17 19 20 24 25 29 28 26 23 21 19 18 17 16 15 14 13 15 20 31 36
43 30 32 29 31 33 31 28 29 32 35 48 38 35 27 27 20 31 34 33 34 35 22 17 16 18 22 27 30 29 26 27 27 26 25 22 20 19 15 11 7 7 16 34
34 32 27 32 32 31 33 33 50 58 58 54 30 34 28 21 25 29 34 42 41 38 31 27 20 18 23 31 33 32 34 32 28 26 25 25 23 22 20 14 9 6 6 11
43 40 34 26 32 35 33 34 43 63 68 47 33 36 33 32 35 32 45 49 51 41 36 23 19 20 29 36 36 38 37 32 32 30 28 27 26 25 20 12 10 12 12 12
40 42 34 28 32 38 38 38 37 36 38 50 36 37 45 40 38 45 43 44 49 51 26 23 21 24 31 38 40 41 37 38 38 35 33 32 31 26 16 11 14 17 20 19
41 43 35 34 33 36 36 41 48 49 62 58 42 37 31 41 40 42 43 46 49 30 29 27 21 21 29 39 41 44 42 43 46 44 39 37 36 24 13 17 23 28 31 30
42 45 42 35 36 39 44 44 47 46 45 64 58 43 31 40 44 45 43 44 39 33 37 34 28 26 33 44 46 50 49 48 51 53 49 42 38 20 20 24 32 43 52 60
46 46 53 44 38 38 43 38 45 50 58 50 46 49 49 47 46 52 53 50 39 40 37 40 34 24 21 31 51 57 59 57 57 60 58 47 36 22 28 34 45 56 66 77
58 50 54 51 46 44 45 46 42 44 48 52 70 54 41 41 53 60 62 57 48 53 47 53 44 42 39 33 38 63 68 67 68 70 64 51 32 27 36 46 58 68 75 84
91 68 51 54 46 50 50 46 43 42 47 50 55 56 48 53 64 81 91 94 96 93 91 79 66 61 50 32 39 68 76 75 80 78 66 49 30 40 51 62 69 78 87 84
97 98 91 60 54 54 78 67 58 60 66 68 66 72 62 69 68 86 86 91 95 83 64 78 77 65 66 44 57 76 83 90 91 83 60 40 40 53 63 70 76 84 64 60
96 97 95 96 76 64 91 89 79 72 72 78 62 62 64 78 95 92 79 76 70 86 82 75 70 70 68 45 65 80 94 94 95 84 55 41 54 62 71 75 75 50 43 40
88 79 81 78 52 51 62 61 48 45 41 44 70 46 57 63 59 49 53 55 58 67 73 69 73 72 68 52 74 90 97 97 95 72 48 54 65 71 75 50 57 24 18 15
74 79 86 82 69 88 63 39 37 41 38 48 53 63 55 50 49 58 54 50 57 60 63 75 70 78 67 67 85 90 94 96 94 60 57 68 73 58 60 36 23 18 15 13
52 63 82 89 76 68 57 50 62 69 73 71 64 63 57 53 54 64 60 56 59 72 71 71 74 81 96 82 84 90 95 96 64 60 68 73 56 13 19 19 17 15 13 12
47 61 93 93 96 83 52 53 50 73 68 54 52 50 49 48 48 49 45 45 59 67 70 68 86 100 85 86 95 97 96 91 72 67 76 68 29 13 17 17 22 16 13 12
77 99 96 100 94 80 49 54 50 54 60 48 53 57 61 59 56 53 55 63 68 67 56 63 75 84 100 96 94 95 96 77 68 76 80 58 11 16 19 16 16 16 15 14
78 91 97 96 96 91 68 66 68 66 65 70 70 66 60 54 45 54 64 59 47 43 48 56 72 82 99 98 96 96 88 73 73 80 70 16 15 20 17 18 19 19 18 17
65 63 70 76 70 65 63 58 58 62 54 71 62 57 60 51 62 67 59 48 45 48 52 61 76 76 97 96 97 93 79 76 80 78 22 14 19 18 19 22 24 24 23 19
51 51 57 63 57 63 62 68 70 70 83 74 46 62 64 61 58 53 56 54 50 49 52 65 73 79 99 99 98 94 76 82 85 68 24 18 19 20 23 27 29 28 26 22
54 56 62 69 66 81 74 77 76 85 85 78 57 55 66 66 61 58 62 58 53 53 54 59 67 80 100 100 98 89 81 87 86 60 16 20 19 24 28 30 32 31 29 25
46 47 57 56 67 80 68 61 86 93 94 88 84 76 72 70 70 69 68 65 61 63 60 61 64 78 99 100 98 86 86 92 81 16 21 20 21 25 29 32 34 33 31 28
Wind_Speed
24 31 35 33 30 30 23 23 22 16 17 30 28 22 21 18 16 17 30 33 38 41 38 30 28 23 18 21 22 21 22 23 24 23 25 28 30 30 32 35 35 38 40 40
24 34 30 26 24 24 22 27 28 23 13 19 21 26 24 21 28 26 31 39 38 41 40 33 24 20 19 19 21 22 22 22 23 22 23 24 28 29 30 31 33 36 38 39
33 32 23 23 27 26 30 31 27 23 27 22 19 21 22 24 27 28 30 35 40 44 41 32 27 22 19 21 22 21 20 19 20 21 21 22 24 26 27 29 31 32 33 35
29 29 25 25 28 29 31 28 23 21 19 26 25 16 26 21 23 39 36 40 43 42 36 32 24 22 22 21 19 17 15 16 17 18 20 21 22 24 27 28 28 29 31 31
27 13 26 32 21 22 30 17 22 21 22 21 28 20 24 26 29 32 41 45 46 40 31 22 22 24 23 19 18 17 15 16 17 18 20 21 22 23 23 25 27 29 29 29
32 26 20 32 33 28 21 17 25 18 16 14 18 17 33 26 35 38 40 44 43 34 21 18 25 26 23 21 20 20 17 18 20 21 22 23 24 25 25 26 25 26 27 26
36 41 35 27 24 31 28 22 3 3 4 8 15 23 41 26 23 29 35 42 33 29 19 21 23 23 22 20 19 19 19 21 23 23 22 23 24 24 26 27 26 25 26 26
30 27 41 40 36 28 33 33 17 7 5 5 24 12 24 20 23 19 20 22 22 26 19 17 20 21 19 18 19 20 21 22 23 24 24 26 27 28 28 28 27 26 26 26
25 27 28 41 39 33 32 40 38 18 21 5 9 7 6 11 16 21 23 24 23 20 17 17 18 18 17 18 21 23 23 23 24 26 26 27 27 28 29 28 27 26 26 26
29 12 26 30 35 43 42 32 22 26 5 8 8 15 13 22 23 25 28 30 23 18 15 16 19 18 17 20 23 24 25 25 26 26 27 27 28 29 28 26 25 25 25 24
48 29 18 18 43 45 41 38 24 26 26 5 2 7 17 17 23 28 30 28 23 19 17 21 21 19 19 22 25 25 26 26 26 27 27 28 29 28 26 24 24 23 22 21
48 25 40 37 27 40 43 47 40 21 20 30 19 12 7 10 10 13 19 26 26 22 20 19 18 17 16 20 26 28 27 26 27 28 27 28 29 27 24 23 22 21 21 18
31 38 24 26 25 33 39 37 44 38 25 34 9 13 23 21 20 18 20 27 28 25 23 18 17 16 20 22 25 27 27 27 27 27 26 27 27 26 23 21 20 19 20 17
19 28 45 24 14 31 34 33 32 29 33 33 32 26 29 18 18 24 28 22 26 23 20 21 28 27 26 23 24 25 26 27 27 25 24 25 25 22 20 18 17 16 16 13
4 16 9 29 17 3 9 29 25 23 23 20 29 27 32 26 26 32 26 18 20 24 27 23 26 29 30 25 23 23 26 27 25 22 22 23 22 19 17 16 14 13 11 9
12 7 14 10 12 5 4 10 21 26 25 28 30 41 35 24 21 26 24 23 27 31 26 23 25 26 27 22 21 22 26 26 22 20 20 20 19 17 15 13 11 9 9 8
13 17 13 14 26 29 17 23 29 35 39 37 28 34 23 20 26 29 28 30 31 33 32 31 26 26 22 19 20 24 26 24 17 16 17 17 16 14 12 9 8 9 11 13
15 15 11 15 23 6 24 36 39 44 42 31 32 27 29 33 29 23 27 28 23 26 25 29 23 23 20 16 19 25 24 20 15 14 14 13 11 8 7 7 9 11 12 12
25 23 13 5 15 21 22 21 9 18 24 24 19 26 22 23 23 17 14 19 21 21 24 23 21 20 18 20 24 25 23 16 12 12 11 9 7 8 8 10 10 11 11 11
19 26 23 14 4 5 25 9 9 11 22 22 21 19 27 29 30 29 26 24 21 21 21 20 18 19 23 21 23 21 16 10 12 12 10 9 9 9 9 9 8 9 9 9
9 15 28 25 14 16 34 25 20 16 22 21 19 16 17 19 21 21 22 22 21 20 20 19 20 21 21 21 20 15 14 12 11 11 11 12 10 9 9 9 9 10 10 8
7 9 14 19 16 13 19 15 13 14 16 14 18 24 21 25 23 20 19 19 19 21 20 20 21 22 23 21 19 15 16 12 13 13 13 12 10 9 8 8 8 8 8 8
14 18 14 14 16 15 11 17 24 30 25 22 24 23 21 16 20 20 19 20 18 18 20 21 22 23 20 19 16 16 14 14 15 14 13 11 10 8 7 7 7 7 7 8
21 21 25 26 29 27 26 24 26 23 21 21 23 24 21 18 17 14 14 16 18 19 19 21 22 19 18 18 17 15 15 15 16 15 13 11 8 7 7 6 6 7 7 8
21 20 21 25 29 28 27 25 27 20 22 22 23 27 23 22 17 18 19 18 19 20 20 20 20 19 20 19 16 17 17 17 16 15 13 11 9 7 6 6 6 7 7 7
17 18 21 26 20 23 24 20 22 24 26 29 25 20 19 18 19 19 20 19 19 19 20 20 19 19 20 17 19 19 18 18 17 16 13 12 10 7 6 6 6 7 8 8
Wind_Direction
235 234 234 241 238 244 243 231 246 277 273 226 227 229 229 231 234 256 233 235 259 273 286 293 290 284 296 295 296 296 293 294 292 291 291 288 287 284 284 283 282 280 278 279
232 240 245 243 240 237 245 245 255 261 257 222 237 240 238 233 241 253 249 240 253 266 275 288 288 288 290 292 294 297 299 298 299 299 296 294 293 292 288 287 285 284 282 280
245 253 255 245 234 227 240 250 256 257 256 255 266 240 231 241 269 248 238 246 257 266 279 287 293 293 291 299 301 301 304 307 309 312 311 309 307 304 302 300 296 290 285 282
247 252 223 249 241 221 242 237 242 254 262 266 261 281 265 266 262 243 238 247 256 267 273 288 291 286 295 296 294 300 310 311 311 311 311 309 308 307 307 306 308 305 300 293
227 252 219 212 239 230 242 251 238 249 245 262 240 268 272 252 253 240 239 237 246 255 270 279 284 291 294 296 297 302 308 310 312 311 310 311 311 310 310 308 308 306 306 304
237 229 228 238 240 239 229 251 245 246 246 257 239 236 274 245 247 241 236 236 240 247 257 278 283 284 289 290 293 300 307 307 306 306 306 308 311 313 314 312 309 304 302 301
230 233 223 230 241 233 225 231 152 255 224 241 239 228 243 257 236 254 240 232 234 233 252 280 278 281 279 279 287 293 302 303 305 305 309 313 315 317 318 315 313 307 302 299
227 247 225 218 234 224 215 214 199 194 197 244 235 240 250 257 235 227 231 234 221 221 259 261 274 277 274 275 282 289 295 301 304 308 314 316 317 319 319 317 315 313 310 306
219 238 240 236 229 216 217 223 222 247 272 281 221 188 209 211 213 207 222 232 232 229 246 265 269 273 276 274 279 285 290 299 303 308 312 314 318 320 319 316 316 316 316 311
227 260 240 235 225 232 223 226 209 215 216 232 220 223 238 222 225 212 218 226 226 237 250 268 272 276 278 269 275 282 287 294 301 306 309 314 319 322 321 318 317 318 317 314
233 232 241 223 217 220 211 219 222 222 224 184 203 227 228 233 235 228 227 231 233 231 250 262 263 272 272 270 272 277 281 287 295 303 310 315 319 321 318 315 315 318 318 319
228 235 244 242 246 226 216 211 222 214 216 225 238 228 214 281 256 234 238 237 227 236 247 254 269 275 281 281 273 273 278 284 292 300 309 314 319 320 315 311 312 316 314 313
225 219 231 242 242 219 210 218 223 224 230 224 190 245 251 264 258 249 238 232 232 237 241 253 265 282 296 295 283 273 274 283 291 298 305 312 316 315 310 308 310 312 310 314
218 221 216 224 226 218 208 212 217 223 225 235 231 241 236 261 243 218 218 227 237 237 250 256 267 279 294 301 287 272 273 284 289 295 303 311 313 311 306 307 309 308 308 312
337 206 239 214 223 242 220 220 231 240 240 234 247 247 256 247 259 261 267 259 239 273 275 252 263 269 281 297 279 270 274 283 284 292 303 310 308 305 305 306 306 305 302 305
322 300 331 312 247 339 322 252 246 257 256 262 268 265 261 261 259 260 256 266 274 262 261 267 273 269 279 294 277 270 278 279 278 287 300 303 300 301 302 303 304 302 303 301
303 298 311 296 301 298 282 267 274 274 277 272 263 278 287 271 275 275 272 269 262 263 266 269 264 265 285 292 276 278 281 275 271 292 296 294 296 299 298 298 296 302 297 301
264 273 287 280 289 282 282 287 278 272 273 277 263 265 268 273 275 278 271 270 259 259 263 258 265 266 282 288 272 279 277 262 272 278 282 287 290 294 296 289 299 305 308 304
265 261 252 233 251 265 263 264 266 266 262 252 255 251 248 246 261 266 265 274 263 258 263 270 274 275 276 279 279 275 265 252 259 270 274 276 262 269 276 287 299 304 305 304
247 245 232 234 220 281 279 268 250 303 283 267 264 261 253 258 263 264 267 271 264 262 269 275 273 265 273 272 270 268 253 258 263 263 254 244 250 268 274 280 291 303 301 304
233 219 224 236 239 252 254 292 276 273 270 281 274 253 251 260 269 278 274 272 269 276 280 281 276 272 265 265 267 245 248 259 251 242 234 235 252 261 270 283 294 301 303 309
213 215 223 236 231 250 266 260 249 259 251 274 272 267 268 275 277 260 259 268 275 275 274 273 270 267 261 262 246 237 250 244 240 230 227 235 248 256 273 288 293 296 305 312
244 244 263 255 250 263 258 290 288 296 287 277 274 275 282 275 260 266 273 268 269 269 267 262 259 258 248 242 228 242 239 234 235 223 223 232 244 254 269 280 294 307 318 317
262 261 259 269 274 280 287 282 281 281 275 281 271 272 268 279 279 255 262 270 272 270 264 256 253 243 236 229 233 235 232 230 222 218 224 231 234 248 265 287 301 311 318 321
267 268 272 279 280 272 263 268 265 267 265 264 266 266 261 272 260 262 275 276 270 265 261 256 251 240 237 233 233 237 231 224 216 215 221 225 226 230 259 278 296 307 316 323
264 284 273 277 289 286 279 283 277 265 272 287 262 263 267 262 263 269 272 264 261 259 255 252 247 240 234 234 233 232 229 217 209 215 217 222 226 231 245 273 292 306 310 314